Ravalli County (6S5)
Hamilton, MT
Field Elevation: 3642
Lat: 45°15.05N  Long: 114°07.31W
CTAF/Unicom Freq: 122.8000
   
     For Weather-by-Phone, call 406-375-9149
Weather Advisories
4/24/2014 13:31 Z
Altimeter 29.81" Hg
Wind 290° @ 4 KT
Gusts --
Visibility 10 SM
Temperature 3° C (37° F)
Dewpoint 2° C (36° F)
Relative Humidity 91%
Density Altitude --
Condensation Altitude 4,200 feet
Wind Chill 1° C (34° F)
  Wind and Runways
Indicated Runway = 34
History
 
 
More Info
All DigiWx sites map
NOAA Forecast
 
Airport IQ 5010
(S59) Libby
(79S) Fort Benton
 
about DigiWx
 
FAA Disclaimer: The data displayed is for advisory purposes only and is not to be used for flight planning or operations. For official data, please call 406-375-9149 to hear the current automated AWOS voice message.
  METAR 6S5 241331Z AUTO 29004KT 10SM 03/02 A2981